Home > Weather > Södertälje > Past weeks

Flag for Sweden Past Weather in Södertälje, Sweden — Yesterday and Last 2 Weeks

Now
72 °F

Sunny.


Feels Like: 75 °F
Forecast: 59 / 71 °F
Wind: 9 mph from Southeast

Location: Stockholm Bromma Airport

Current Time: Aug 26, 2016 at 10:41:12 AM

Latest Report: Aug 26, 2016 at 9:50 AM


Visibility: 10 mi

Pressure: 29.98 "Hg

Humidity: 69%

Dew Point: 61 °F

Location of SödertäljeLocation

Past Weather in Södertälje — Graph

°F

Södertälje Temperature Yesterday

Maximum temperature yesterday: 77 °F (at 2:20 PM)
Minimum temperature yesterday: 55 °F (at 5:20 AM)
Average temperature yesterday: 65 °F

High & Low Weather Summary for the Past Weeks

 TemperatureHumidityPressure
High77 °F (Aug 24, 3:50 PM)100% (Aug 12, 2:20 AM)30.27 "Hg (Aug 12, 2:20 AM)
Low41 °F (Aug 12, 4:20 AM)32% (Aug 12, 2:50 PM)29.65 "Hg (Aug 13, 4:20 AM)
Average61 °F74%29.95 "Hg
* Reported Aug 11 9:20 AM — Aug 26 9:20 AM, Södertälje, Weather by CustomWeather, © 2016

Note: Actual official high and low records may vary slightly from our data, if they occured in-between our weather recording intervals... More about our weather records

Advertising

Södertälje Weather History for the Previous 24 Hours

Scroll right to see more
 ConditionsComfort  
Time TempWeatherWind HumidityBarometerVisibility
9:20 AM
Fri, Aug 26
70 °FSunny.10 mph73%29.98 "Hg10 mi
8:50 AM68 °FPassing clouds.8 mph78%29.98 "HgN/A
8:20 AM68 °FSunny.9 mph78%29.98 "Hg10 mi
7:50 AM66 °FSunny.7 mph83%29.98 "Hg10 mi
7:20 AM64 °FSunny.6 mph94%30.01 "Hg10 mi
6:50 AM63 °FSunny.3 mph94%30.01 "Hg10 mi
6:20 AM61 °FClear.No wind100%30.01 "Hg10 mi
5:50 AM61 °FClear.No wind100%30.01 "Hg10 mi
5:20 AM61 °FFog.2 mph100%30.01 "Hg4 mi
4:50 AM61 °FPassing clouds.No wind94%30.04 "Hg5 mi
4:20 AM61 °FFog.No wind94%30.04 "Hg4 mi
3:50 AM61 °FOvercast.1 mph100%30.04 "HgN/A
3:20 AM61 °FPassing clouds.2 mph100%30.04 "HgN/A
2:50 AM61 °FPassing clouds.1 mph100%30.04 "Hg4 mi
2:20 AM61 °FFog.No wind100%30.04 "Hg4 mi
1:50 AM63 °FPassing clouds.No wind94%30.04 "Hg6 mi
1:20 AM63 °FMild.No wind94%30.04 "HgN/A
12:50 AM64 °FPassing clouds.3 mph94%30.04 "HgN/A
12:20 AM63 °FPartly cloudy.2 mph94%30.04 "HgN/A
11:50 PM
Thu, Aug 25
64 °FPassing clouds.5 mph94%30.04 "HgN/A
11:20 PM64 °FOvercast.5 mph94%30.04 "HgN/A
10:50 PM64 °FDrizzle. Overcast.2 mph94%30.07 "HgN/A
10:20 PM64 °FOvercast.2 mph94%30.07 "HgN/A
9:50 PM64 °FPassing clouds.2 mph94%30.07 "HgN/A
9:20 PM64 °FPassing clouds.2 mph94%30.07 "HgN/A
8:50 PM64 °FPassing clouds.2 mph94%30.07 "HgN/A
8:20 PM64 °FSunny.3 mph88%30.07 "Hg10 mi
7:50 PM64 °FSunny.3 mph88%30.07 "Hg10 mi
7:20 PM64 °FPartly sunny.5 mph88%30.07 "HgN/A
6:50 PM66 °FScattered clouds.5 mph83%30.09 "HgN/A
6:20 PM66 °FLight rain. Partly sunny.3 mph83%30.09 "HgN/A
5:50 PM68 °FLight rain. Broken clouds.5 mph78%30.09 "HgN/A
5:20 PM72 °FPassing clouds.7 mph61%30.09 "HgN/A
4:50 PM72 °FPassing clouds.6 mph61%30.09 "HgN/A
4:20 PM73 °FLight rain. Clear.7 mph61%30.09 "HgN/A
3:50 PM73 °FSunny.8 mph57%30.09 "Hg10 mi
3:20 PM75 °FPassing clouds.8 mph54%30.09 "HgN/A
2:50 PM75 °FPassing clouds.8 mph54%30.12 "HgN/A
2:20 PM77 °FPassing clouds.7 mph54%30.12 "HgN/A
1:50 PM75 °FPassing clouds.7 mph57%30.12 "HgN/A
1:20 PM73 °FPassing clouds.5 mph61%30.12 "HgN/A
12:50 PM70 °FPassing clouds.3 mph69%30.12 "HgN/A
12:20 PM70 °FPassing clouds.5 mph69%30.12 "HgN/A
11:50 AM68 °FPartly sunny.7 mph73%30.15 "HgN/A
11:20 AM68 °FPartly sunny.5 mph73%30.15 "HgN/A
10:50 AM68 °FLight rain. Passing clouds.10 mph69%30.15 "HgN/A
10:20 AM70 °FSunny.9 mph64%30.15 "Hg10 mi
Weather by CustomWeather, © 2016

See weather overviewHow to use our weather pages